DUMMY MASS 2

Satellite information

Favourite Embed

Satellite Type and Status

PAYLOADIN ORBIT

Key statistics

Satellite DUMMY MASS 2 at a glance.

Uptime

10171

Days in orbit

Revolutions

≈ 14.9

Per day

Orbit

LEO

Low Earth Orbit

Inclination

86.3

Latest

Satellite identification and parameters

Extended collection of information and parameters for DUMMY MASS 2.

Object identification

Identified? True

Debris? False

Object name: DUMMY MASS 2

International designator: 1997-048B

Object number (NORAD): 24926

Object ID (CCSDS): 24926

Country: PEOPLES REPUBLIC OF CHINA (PRC)

Current information (Y/N): Y

RCS size: LARGE

Orbital parameters

Period: 96.856 minutes

Inclination: 86.3365 deg

SMA: 6986.234 km

Apoapsis: 615.003 km

Periapsis: 601.194 km

RAAN: 128.0779 deg

Eccentricy: 0.0009883

Argument of periapsis: 90.2668 deg

Mean anomaly: 269.969 deg

Mean motion: 14.86750578 rev/day

Mean motion (dot): 0.0000034 rev/day2

B* drag term: 0.000034995 1/REarth

Two-line elements (TLE)

Creation date: July 6, 2025, 6:05 p.m.

Reference frame: TEME

Reference center: EARTH

Epoch: July 6, 2025, 8:37 a.m. UTC

TLE line 0: 0 DUMMY MASS 2

TLE line 1: 1 24926U 97048B 25187.35958563 .00000340 00000-0 34995-4 0 9999

TLE line 2: 2 24926 86.3365 128.0779 0009883 90.2668 269.9690 14.86750578507755

Live tracking on map

Real-time ground track for satellite DUMMY MASS 2.

In-orbit conjunctions

A list of the most updated potential collisions computed for object DUMMY MASS 2.

Target Orbit TCA Probability of collision Miss distance Type
CZ-2C DEB SSO 2024-07-08 15:48:27 0.001297747 333.0 (m) DEBRIS
COSMOS 1275 DEB LEO 2024-06-01 08:54:38 0.0001067406 821.0 (m) DEBRIS

Associated space launch

The Iridium-MFS payloads were mass models of the Iridium communications satellites. Two were launched to test the new CZ-2C (2) SD launch vehicle and the payload dispenser.

DUMMY MASS 2 was lifted into orbit during the mission ‘Long March 2C/SD | Iridium MFS 1 & 2’, on board a Long March 2C/SD space rocket.

The launch took place on Sept. 1, 1997, 2 p.m. from Launch Complex 7.

For more information about the launch, click the button.

Launch to space Long March 2C/SD | Iridium MFS 1 & 2
Long March 2C/SD | Iridium MFS 1 & 2

Agency: N/A

Status: Launch Successful

Launch date: Sept. 1, 1997, 2 p.m. UTC

Rocket: Long March 2C/SD

Launch pad: Launch Complex 7

Location: Taiyuan Satellite Launch Center, People's Republic of China

...

Latest news about this satellite

There are no fresh news available about this satellite. Check back as we update our databases every day.


Newsletter sign-up

Weekly statistics, charts and insights to help you stay on top of the space industry.